Orbital Elements at Epoch 2459000.5 (2020-May-31.0) TDB
Reference: JPL 76 (heliocentric ecliptic J2000)
Element | Value | Uncertainty (1-sigma) | Units |
e | .4418323206050818 | 7.7107e-08 | |
a | 2.199242804336509 | 2.5945e-08 | au |
q | 1.227546252522481 | 1.726e-07 | au |
i | 43.08049821449745 | 2.006e-05 | deg |
node | 52.31035101584194 | 1.1601e-05 | deg |
peri | 285.8881990226681 | 1.9308e-05 | deg |
M | 215.7026673949844 | 2.708e-05 | deg |
tp | 2459477.989689990307 (2021-Sep-20.48968999) | 9.714e-05 | TDB |
period | 1191.264490432691 3.26 | 2.1081e-05 5.772e-08 | d yr |
n | .3021998917043526 | 5.3478e-09 | deg/d |
Q | 3.170939356150537 | 3.7409e-08 | au |
|
| | Orbit Determination Parameters
Additional Information
|